FW2895 Weather Reports


time (UTC)temp
F
wind
direction
speed
knots
gust
knots
rain 1hr
in
rain 24hr
in
rain mn
in
humidity
%
barometer
mb
20260906225152 98 135 2.6 3.5 0.00 0.00 0.00 37 1013.7
20260906223135 99 99 3.5 6.1 0.00 0.00 0.00 35 1013.7
20260906222233 99 147 2.6 4.3 0.00 0.00 0.00 37 1013.9
20260906221333 99 100 5.2 7.0 0.00 0.00 0.00 37 1013.8
20260906214333 99 153 0.9 4.3 0.00 0.00 0.00 36 1013.9
20260906213335 98 92 1.7 4.3 0.00 0.00 0.00 38 1013.9
20260906212333 97 152 1.7 3.5 0.00 0.00 0.00 38 1014.2
20260906212234 97 133 2.6 4.3 0.00 0.00 0.00 39 1014.3
20260906210234 97 166 0.9 4.3 0.00 0.00 0.00 37 1014.5
20260906205236 99 100 2.6 7.0 0.00 0.00 0.00 38 1014.6
20260906204334 98 158 1.7 5.2 0.00 0.00 0.00 38 1014.8
20260906203335 99 111 6.1 8.7 0.00 0.00 0.00 38 1014.9
20260906202335 99 162 4.3 9.6 0.00 0.00 0.00 38 1014.9
20260906201337 98 155 5.2 7.8 0.00 0.00 0.00 39 1015.2
20260906200433 98 137 6.1 11.3 0.00 0.00 0.00 40 1015.4
20260906195449 97 125 2.6 4.3 0.00 0.00 0.00 41 1015.3
20260906194435 96 153 2.6 5.2 0.00 0.00 0.00 41 1015.3
20260906192533 97 108 2.6 6.1 0.00 0.00 0.00 41 1015.7
20260906191535 96 140 3.5 5.2 0.00 0.00 0.00 42 1015.7
20260906190535 96 109 7.8 13.0 0.00 0.00 0.00 44 1015.8
20260906185535 96 168 3.5 5.2 0.00 0.00 0.00 42 1015.9
20260906184634 97 174 2.6 7.0 0.00 0.00 0.00 42 1016.0
20260906182735 96 101 5.2 7.8 0.00 0.00 0.00 43 1016.3
20260906181735 95 175 4.3 8.7 0.00 0.00 0.00 44 1016.4
20260906180736 96 180 0.0 1.7 0.00 0.00 0.00 43 1016.4
20260906175834 95 180 2.6 7.0 0.00 0.00 0.00 45 1016.6
20260906174834 94 151 0.9 1.7 0.00 0.00 0.00 46 1016.7
20260906174735 94 120 4.3 7.8 0.00 0.00 0.00 45 1016.8
20260906173735 94 165 3.5 4.3 0.00 0.00 0.00 46 1017.0
20260906173636 94 150 4.3 7.8 0.00 0.00 0.00 46 1016.9
20260906173534 94 144 4.3 6.1 0.00 0.00 0.00 46 1017.0
20260906172550 94 125 6.1 10.4 0.00 0.00 0.00 46 1017.3
20260906171536 93 167 1.7 2.6 0.00 0.00 0.00 48 1017.3
20260906170633 93 143 2.6 4.3 0.00 0.00 0.00 48 1017.3
20260906165633 93 138 5.2 7.8 0.00 0.00 0.00 50 1017.4
20260906164636 92 149 4.3 7.0 0.00 0.00 0.00 51 1017.5
20260906163635 92 136 4.3 6.1 0.00 0.00 0.00 52 1017.6
20260906162635 92 177 1.7 3.5 0.00 0.00 0.00 52 1017.5
20260906161634 92 184 2.6 5.2 0.00 0.00 0.00 52 1017.5
20260906160733 92 141 6.1 7.8 0.00 0.00 0.00 51 1017.5
20260906155734 92 124 1.7 4.3 0.00 0.00 0.00 53 1017.5
20260906154734 91 135 0.9 2.6 0.00 0.00 0.00 57 1017.5
20260906153734 89 143 1.7 3.5 0.00 0.00 0.00 59 1017.4
20260906152733 90 138 1.7 4.3 0.00 0.00 0.00 60 1017.3
20260906151735 90 114 2.6 4.3 0.00 0.00 0.00 59 1017.1
20260906150833 91 151 2.6 4.3 0.00 0.00 0.00 59 1017.2
20260906145932 90 135 0.9 2.6 0.00 0.00 0.00 60 1017.2
20260906144035 88 157 0.0 1.7 0.00 0.00 0.00 64 1016.9
20260906143037 88 151 0.0 0.9 0.00 0.00 0.00 65 1017.1
20260906142034 87 183 0.0 0.9 0.00 0.00 0.00 66 1017.3
20260906135034 84 157 0.0 0.9 0.00 0.00 0.00 73 1017.2
20260906134035 83 157 0.0 0.9 0.00 0.00 0.00 76 1017.1
20260906133133 82 123 2.6 3.5 0.00 0.00 0.00 77 1017.1
20260906132136 81 135 1.7 3.5 0.00 0.00 0.00 80 1017.2
20260906131234 81 112 1.7 2.6 0.00 0.00 0.00 81 1016.9
20260906130251 80 135 0.9 1.7 0.00 0.00 0.00 83 1017.1
20260906125332 79 135 0.9 2.6 0.00 0.00 0.00 83 1016.9
20260906123333 79 135 0.0 0.9 0.00 0.00 0.00 85 1016.9
20260906121433 78 135 1.7 1.7 0.00 0.00 0.00 84 1016.7
20260906120433 78 135 0.0 0.9 0.00 0.00 0.00 85 1016.6
20260906115532 78 135 0.9 1.7 0.00 0.00 0.00 85 1016.6
20260906114536 78 135 0.9 1.7 0.00 0.00 0.00 84 1016.5
20260906113633 78 135 0.9 0.9 0.00 0.00 0.00 84 1016.4
20260906111733 79 135 0.9 1.7 0.00 0.00 0.00 84 1016.3
20260906110832 79 135 0.9 2.6 0.00 0.00 0.00 84 1016.4
20260906105833 79 135 1.7 2.6 0.00 0.00 0.00 84 1016.3
20260906104932 79 135 0.0 0.9 0.00 0.00 0.00 83 1016.1
20260906103934 78 180 0.0 0.9 0.00 0.00 0.00 83 1016.1
20260906102035 78 180 0.0 0.0 0.00 0.00 0.00 82 1016.0
20260906101034 79 180 0.0 0.0 0.00 0.00 0.00 81 1015.8
20260906100034 79 180 0.0 0.0 0.00 0.00 0.00 80 1015.8
20260906095035 79 180 0.0 0.0 0.00 0.00 0.00 79 1015.8
20260906094132 80 180 0.0 0.0 0.00 0.00 0.00 79 1015.6
20260906093132 80 180 0.0 0.0 0.00 0.00 0.00 77 1015.5
20260906092135 80 180 0.0 0.9 0.00 0.00 0.00 77 1015.4
20260906091134 81 225 0.0 0.0 0.00 0.00 0.00 77 1015.3
20260906085132 81 225 0.0 1.7 0.00 0.00 0.00 77 1015.2
20260906083133 81 178 0.9 3.5 0.00 0.00 0.00 76 1015.4
20260906082133 81 157 0.9 0.9 0.00 0.00 0.00 75 1015.3
20260906081132 81 180 0.0 0.9 0.00 0.00 0.00 76 1015.2
20260906080135 82 176 0.9 2.6 0.00 0.00 0.00 74 1015.3
20260906073151 82 180 0.9 2.6 0.00 0.00 0.00 73 1015.4
20260906071133 83 192 0.9 1.7 0.00 0.00 0.00 72 1015.5
20260906071032 83 202 0.0 0.0 0.00 0.00 0.00 72 1015.6
20260906070035 83 187 1.7 3.5 0.00 0.00 0.00 71 1015.6
20260906065033 83 167 1.7 3.5 0.00 0.00 0.00 69 1015.8
20260906064034 83 158 0.9 2.6 0.00 0.00 0.00 69 1015.6
20260906061231 84 202 0.0 0.9 0.00 0.00 0.00 67 1015.6
20260906060232 84 202 0.0 0.9 0.00 0.00 0.00 67 1015.7
20260906055233 84 180 1.7 3.5 0.00 0.00 0.00 66 1015.7
20260906054235 84 190 0.9 1.7 0.00 0.00 0.00 66 1015.7
20260906053233 84 186 1.7 2.6 0.00 0.00 0.00 65 1015.6
20260906052232 85 180 0.9 0.9 0.00 0.00 0.00 65 1015.6
20260906051331 85 180 0.0 0.9 0.00 0.00 0.00 63 1015.6
20260906050332 85 157 0.0 0.9 0.00 0.00 0.00 63 1015.6
20260906045337 86 174 0.9 3.5 0.00 0.00 0.00 63 1015.6
20260906044336 86 172 0.9 2.6 0.00 0.00 0.00 61 1015.6
20260906043336 86 179 1.7 3.5 0.00 0.00 0.00 62 1015.8
20260906042338 86 157 3.5 5.2 0.00 0.00 0.00 62 1015.6
20260906040337 86 160 0.9 2.6 0.00 0.00 0.00 60 1015.5
20260906035336 86 196 0.0 1.7 0.00 0.00 0.00 61 1015.6
20260906033339 87 135 2.6 4.3 0.00 0.00 0.00 59 1015.5
20260906032335 87 173 3.5 6.1 0.00 0.00 0.00 58 1015.5
20260906030338 88 161 2.6 4.3 0.00 0.00 0.00 56 1015.7
20260906025338 88 142 4.3 7.8 0.00 0.00 0.00 56 1015.5
20260906024337 88 162 2.6 6.1 0.00 0.00 0.00 56 1015.4
20260906023336 88 145 2.6 4.3 0.00 0.00 0.00 56 1015.3
20260906022435 88 170 2.6 4.3 0.00 0.00 0.00 56 1015.2
20260906020438 89 150 2.6 4.3 0.00 0.00 0.00 54 1014.9
20260906015438 89 171 1.7 5.2 0.00 0.00 0.00 53 1014.8
20260906014535 90 151 2.6 4.3 0.00 0.00 0.00 52 1014.7
20260906013539 91 136 4.3 9.6 0.00 0.00 0.00 49 1014.5
20260906012538 92 140 4.3 11.3 0.00 0.00 0.00 48 1014.3
20260906011636 93 122 5.2 10.4 0.00 0.00 0.00 47 1013.9
20260906010735 94 164 3.5 7.0 0.00 0.00 0.00 45 1013.9
20260906005736 94 134 2.6 4.3 0.00 0.00 0.00 42 1013.7
20260906004737 95 143 2.6 5.2 0.00 0.00 0.00 41 1013.6
20260906003835 95 146 1.7 5.2 0.00 0.00 0.00 40 1013.7
20260906002837 96 147 1.7 4.3 0.00 0.00 0.00 40 1013.7
20260906001839 96 138 0.9 1.7 0.00 0.00 0.00 38 1013.7
20260905235938 97 132 1.7 4.3 0.00 0.00 0.00 37 1013.6
20260905235035 98 157 2.6 5.2 0.00 0.00 0.00 37 1013.4
20260905234053 99 162 2.6 3.5 0.00 0.00 0.00 36 1013.3
20260905233137 99 139 0.9 1.7 0.00 0.00 0.00 35 1013.6
20260905232136 99 144 0.9 2.6 0.00 0.00 0.00 34 1013.4
20260905231139 101 190 1.7 2.6 0.00 0.00 0.00 34 1013.5